User: anonymous   Login
Location: Sternwarte Stuttgart
(48.7670°N, 9.1830°E)
Time: 04:27:49
(UTC+01:00)
Language:

ERBS - Orbit

View from above orbital plane
View from above orbital plane
View from above satellite
View from above satellite

Ground track
Ground track

The orbit data is extracted from the following two-line orbital elements,

1 15354U 84108B   19076.93921343 +.00003197 +00000-0 +69748-4 0  9994
2 15354 057.0057 259.9973 0005198 223.2375 136.8274 15.47322039896690
Epoch (UTC): 17 March 2019 22:32:28
Eccentricity: 0.0005198
inclination: 57.0057°
perigee height: 421 km
apogee height: 428 km
right ascension of ascending node: 259.9973°
argument of perigee: 223.2375°
revolutions per day: 15.47322039
mean anomaly at epoch: 136.8274°
orbit number at epoch: 89669

The dashed part of the orbit path shows where the satellite is in the earth's shadow,  

DLR